Wind_Speed
27 25 23 20 17 14 11 10 11 12 16 19 20 20 21 22 24 28 36 39 40 23 31 28 36 24 17 26 12 4 4 3 2 15 6 4 3 3 3 3 9 9 8 4 4 4 12 9 6 12 6 1 12 19
23 22 19 18 17 15 11 10 12 15 18 22 24 22 25 31 25 27 39 43 47 31 10 33 42 47 40 33 29 10 4 4 5 4 2 3 1 1 2 4 2 6 5 8 10 7 1 24 4 7 11 8 12 21
21 20 18 16 16 15 14 14 18 21 25 27 26 19 25 30 24 15 18 22 21 27 11 17 24 42 36 42 34 11 13 16 6 1 3 2 2 2 4 3 2 2 1 3 3 6 4 15 5 19 9 15 20 25
20 19 19 18 18 18 17 18 25 27 28 23 18 18 26 22 18 8 12 4 14 7 2 5 19 18 36 39 34 40 24 21 12 7 2 2 2 4 4 3 2 2 8 6 2 4 4 6 13 18 15 20 23 25
21 20 19 19 19 19 20 24 28 31 28 21 15 16 23 23 15 6 5 5 9 3 2 2 5 7 21 33 34 30 33 21 12 5 3 4 3 3 2 1 2 5 7 8 8 10 4 8 23 23 26 27 30 34
22 22 21 21 20 20 21 25 27 31 29 23 18 18 18 26 11 4 3 5 2 5 2 1 4 12 13 23 27 24 14 13 7 5 2 2 3 3 3 3 4 6 7 8 5 17 15 24 25 26 28 31 31 31
23 24 24 22 23 23 23 26 27 29 31 25 18 16 13 14 19 11 4 13 6 3 1 1 2 6 8 12 9 5 10 6 5 4 2 2 2 3 3 4 3 17 17 16 22 24 14 23 19 26 28 31 30 29
23 23 23 25 24 24 24 26 27 30 31 26 20 14 10 11 8 11 15 21 8 3 4 2 1 3 8 4 2 4 3 3 4 3 2 2 3 2 2 6 7 16 17 14 21 14 23 27 31 35 35 32 28 26
25 25 24 24 24 23 23 27 28 30 31 25 15 9 5 3 6 10 8 5 15 7 2 2 2 1 4 5 4 4 4 2 2 2 2 1 1 2 4 2 10 19 11 19 23 28 33 36 33 30 29 26 26 23
26 26 24 24 24 24 24 25 29 30 31 24 10 4 3 11 16 7 1 4 5 7 7 2 5 2 3 2 2 2 3 2 2 2 2 2 2 3 9 10 16 18 22 29 24 17 27 27 29 27 24 20 18 21
29 26 24 23 23 24 23 23 28 30 26 21 11 4 15 14 6 3 3 3 3 2 6 5 7 2 11 3 2 3 1 1 2 2 2 2 1 3 6 13 16 21 25 21 29 31 30 32 28 25 21 19 20 19
28 25 22 21 21 22 21 22 24 26 24 21 13 12 7 9 7 5 3 3 4 3 3 3 3 2 2 1 2 3 2 1 3 1 2 1 1 2 8 14 18 20 15 18 24 28 27 27 26 24 23 22 19 17
26 26 23 21 21 20 19 20 20 21 21 7 4 3 5 5 7 5 6 2 2 5 5 3 2 2 2 5 2 3 3 1 1 3 1 2 4 8 14 18 18 16 19 24 22 21 21 21 19 19 21 17 15 12
25 25 23 21 19 19 18 20 18 18 7 4 4 6 3 3 2 2 3 3 4 5 10 6 2 3 4 3 1 4 1 1 2 2 3 3 9 14 17 18 21 20 19 20 20 20 20 19 19 17 14 12 11 13
25 25 22 20 16 16 18 18 14 10 4 2 2 1 1 3 3 3 4 2 4 7 7 3 3 3 3 3 2 2 3 0 1 3 2 5 17 21 20 19 19 19 19 19 19 20 20 19 17 16 14 13 16 17
24 25 18 15 17 17 16 16 11 4 3 2 2 2 0 2 3 1 1 0 8 5 3 2 2 3 3 1 1 1 1 2 3 2 0 12 17 21 21 18 18 18 17 17 17 17 17 16 18 18 16 15 15 15
21 18 16 19 20 18 13 10 4 4 3 3 3 4 5 2 4 5 4 2 5 2 1 1 3 2 1 2 1 1 3 2 1 2 6 10 17 21 19 17 17 17 17 17 16 15 16 16 16 16 15 15 14 14
25 23 18 18 19 17 9 4 3 3 4 4 3 5 7 4 5 4 4 6 2 2 1 1 1 0 2 1 2 2 1 2 3 4 9 12 17 18 16 15 17 16 13 13 13 14 15 14 13 14 14 13 11 12
24 24 17 12 11 8 4 3 5 3 4 4 5 6 6 4 7 4 7 6 4 4 2 2 1 1 2 2 3 3 5 5 6 9 13 14 15 14 13 14 15 13 11 12 14 14 14 12 11 14 15 13 12 12
21 23 16 9 8 5 4 4 5 4 2 5 5 9 5 4 5 8 9 7 4 3 2 2 3 3 3 2 2 2 6 8 18 18 14 12 14 12 12 15 15 14 12 12 12 13 14 14 13 15 13 13 12 13
21 19 10 12 12 12 5 4 5 5 3 5 5 10 4 6 5 5 8 8 4 2 2 6 6 1 2 3 4 6 8 12 12 10 18 16 13 11 12 11 12 16 15 15 15 16 16 16 15 17 15 14 11 9
20 13 7 13 10 7 7 8 5 2 4 2 7 7 3 2 2 7 9 3 3 5 6 4 4 4 7 5 6 8 10 10 6 5 12 14 15 12 12 14 18 17 14 14 16 18 16 15 16 14 14 14 13 12
18 11 9 6 10 13 6 8 5 5 4 3 7 4 2 2 7 12 2 4 5 6 8 6 3 4 8 10 10 10 10 10 9 8 9 8 8 7 6 9 12 14 13 11 9 10 12 15 16 15 15 16 17 15
16 9 5 6 9 4 3 3 4 2 2 3 3 3 3 3 11 3 3 3 5 3 4 6 9 10 11 12 12 13 12 8 8 10 8 8 8 9 12 13 10 10 11 11 14 15 14 15 17 18 18 19 20 19
7 5 5 4 4 3 2 2 3 3 3 4 5 1 2 6 3 4 3 3 9 7 6 7 10 11 14 12 9 8 8 9 9 7 5 2 4 7 7 8 10 15 18 17 19 20 20 20 20 21 22 23 23 23
4 4 5 3 2 3 4 3 4 4 2 2 3 2 2 2 2 3 2 7 7 11 12 11 12 13 12 10 9 7 5 4 5 6 6 6 6 6 7 9 12 14 16 20 22 23 23 23 23 23 25 25 24 24
3 1 3 4 4 4 1 1 1 2 3 4 3 3 3 3 5 2 4 5 8 13 12 10 8 8 10 8 6 4 1 1 2 4 5 6 7 8 9 11 11 14 12 12 15 25 24 24 24 23 23 25 28 25
2 3 1 3 2 2 2 1 3 4 2 2 2 2 6 5 2 3 3 9 16 15 15 13 10 8 5 3 1 2 4 5 5 6 6 5 5 4 5 7 9 10 9 10 11 12 15 20 23 23 24 25 27 25
3 7 5 3 2 1 1 1 1 2 2 2 3 2 2 3 3 6 14 16 16 11 8 6 5 3 2 1 2 4 6 7 6 6 6 5 6 7 6 7 7 7 7 9 9 11 14 17 18 17 19 20 21 22
3 10 3 2 2 2 4 6 3 3 5 6 6 5 7 9 9 13 15 11 6 4 3 2 1 1 2 1 3 5 6 5 2 1 0 1 3 5 7 8 9 11 11 8 9 8 11 13 13 13 15 16 19 20
7 6 3 1 1 1 3 5 5 5 4 6 8 6 6 6 8 8 5 5 5 4 3 3 4 4 4 3 1 3 2 3 3 4 2 1 3 6 8 8 9 10 9 11 13 11 8 10 12 12 14 17 20 22
8 4 2 2 2 3 2 2 3 4 5 4 4 4 4 4 3 3 3 3 3 5 3 2 3 4 5 3 3 2 2 2 1 1 0 1 3 4 6 7 8 8 7 9 8 9 11 11 9 9 11 10 13 19
4 7 3 2 2 3 6 3 5 2 5 3 5 4 3 3 2 3 6 6 4 3 2 3 3 3 3 4 4 4 3 3 4 3 3 5 7 8 8 7 5 5 5 3 1 2 4 6 7 8 9 10 11 12
Wind_Direction
13 18 24 30 31 26 25 25 12 8 350 338 328 319 310 304 287 266 267 259 236 238 243 219 223 215 198 206 217 211 160 219 268 215 210 178 219 257 87 131 163 161 156 171 141 156 245 157 145 178 200 328 174 180
5 9 14 16 14 8 1 356 348 337 326 322 321 308 306 310 293 278 279 270 251 228 250 233 226 225 219 217 213 216 224 158 201 204 145 98 195 226 132 183 4 192 190 179 190 210 193 174 139 172 165 155 164 165
2 2 1 360 358 358 350 339 333 329 324 322 320 309 313 328 285 295 298 280 240 207 234 236 218 222 226 228 225 194 226 232 208 227 174 128 150 159 187 206 124 271 317 122 138 212 201 191 183 188 178 164 172 181
354 354 352 347 345 344 345 343 340 339 334 335 332 326 330 324 309 326 349 353 173 149 251 232 220 221 221 223 223 217 220 204 207 178 72 104 193 196 198 134 157 203 139 141 262 271 62 140 179 168 162 154 151 161
348 348 347 343 339 337 337 339 341 344 341 338 329 327 332 342 309 260 116 57 82 203 180 255 108 160 208 214 217 217 223 217 170 159 158 181 169 186 92 76 221 186 175 179 210 169 145 160 154 157 146 143 144 143
346 341 334 337 335 335 335 339 341 345 345 338 317 309 346 6 350 182 350 13 221 28 12 30 28 28 154 194 205 211 191 190 167 149 153 167 176 158 125 208 272 167 223 191 162 143 129 146 149 149 153 148 147 152
332 335 335 327 325 328 331 336 340 345 345 340 320 304 299 357 23 43 20 345 357 108 240 84 31 15 89 122 133 124 133 131 116 143 162 132 106 85 98 212 244 185 178 140 151 131 103 150 151 166 161 150 148 144
325 331 328 334 331 328 329 333 335 345 346 338 330 313 306 284 300 25 19 27 29 62 66 82 27 40 19 26 76 74 100 99 57 105 97 97 112 81 235 259 238 177 160 158 169 175 164 156 152 144 144 145 142 143
317 319 327 325 329 331 328 331 333 339 346 343 336 331 299 302 318 316 324 352 29 42 74 24 26 65 29 33 63 52 40 61 73 65 60 75 102 182 262 222 141 135 129 126 141 139 138 140 143 142 144 147 148 152
318 314 317 326 328 329 332 331 335 338 346 352 351 350 355 327 322 306 158 184 40 22 41 20 10 53 32 35 51 71 28 30 68 43 10 44 20 17 24 90 116 122 136 138 115 104 123 132 147 152 155 155 161 160
320 311 309 319 327 329 331 333 335 338 350 357 340 321 320 341 351 14 28 54 9 41 11 4 8 63 25 54 68 33 82 348 53 46 39 71 65 6 56 113 133 154 151 155 164 162 164 162 159 158 160 161 161 161
323 318 308 312 322 326 329 336 336 336 340 327 310 303 325 9 20 56 357 356 36 33 6 351 334 31 77 105 102 6 68 20 73 269 80 61 191 98 122 131 138 148 153 149 161 156 161 164 166 166 163 160 162 165
318 319 313 309 314 321 324 334 333 329 331 325 328 308 6 339 35 31 353 355 12 347 347 328 353 8 45 42 65 65 68 35 160 46 123 179 135 149 147 145 142 137 137 140 148 152 158 160 163 167 160 161 165 172
312 315 315 308 307 314 322 328 331 333 325 342 9 350 88 358 71 13 332 316 308 317 342 340 1 43 354 47 27 76 328 50 57 89 221 174 169 163 159 152 145 140 143 144 146 151 156 160 158 161 167 178 192 174
307 312 316 307 304 307 315 320 324 324 296 310 44 241 198 177 182 240 296 317 342 320 344 348 34 34 7 62 26 93 40 356 216 222 240 149 159 168 163 159 153 149 150 149 153 156 157 160 162 164 172 175 167 159
304 309 315 309 302 303 315 317 318 289 249 226 157 88 360 44 295 203 140 246 7 345 332 17 37 44 13 83 89 216 155 200 255 239 62 148 157 167 166 163 161 157 156 151 153 155 159 165 166 159 153 152 154 153
296 292 307 306 304 305 311 313 278 240 226 199 249 198 185 216 203 184 160 148 8 9 80 51 50 360 29 26 353 177 194 233 223 111 153 164 162 168 164 161 160 160 158 154 155 159 160 158 159 160 160 160 158 154
272 292 299 311 313 319 316 221 240 247 243 189 176 195 195 226 182 220 214 173 139 104 80 117 209 273 161 182 276 246 127 98 127 139 153 154 163 163 163 165 165 164 162 165 167 165 164 163 167 163 153 149 149 156
274 286 289 304 310 312 283 237 217 243 232 207 211 185 174 181 209 222 187 165 127 128 118 116 110 220 240 218 217 199 183 165 145 139 147 152 158 159 164 166 168 175 178 175 178 180 177 178 182 167 164 164 159 152
265 271 277 274 226 245 263 254 218 244 224 220 194 176 167 169 170 187 188 202 199 171 104 178 212 220 203 350 325 325 151 151 138 130 138 156 166 164 167 175 179 178 179 180 185 189 187 187 191 178 176 177 179 175
258 271 262 216 209 218 270 264 245 230 217 200 192 161 154 157 156 162 176 173 198 185 227 231 215 179 195 100 98 122 136 154 158 156 160 158 170 181 180 189 190 178 181 190 197 197 199 199 186 183 184 183 180 181
239 232 223 209 210 214 249 235 239 251 195 206 161 173 148 161 154 194 162 166 214 222 201 193 199 215 189 162 152 152 151 154 151 129 162 165 163 176 193 190 187 192 195 199 201 196 194 185 182 189 189 185 189 188
221 211 215 233 206 201 243 210 198 208 205 197 158 155 174 174 187 156 175 222 226 216 215 215 198 164 156 140 136 145 153 153 142 144 152 166 176 166 151 188 199 201 198 201 194 193 191 187 192 197 202 203 202 198
168 175 224 223 212 232 190 199 216 230 203 184 170 193 163 145 156 173 201 211 189 213 216 200 181 170 153 146 137 140 144 155 163 151 152 160 169 195 212 214 207 207 217 219 214 210 208 206 206 210 212 211 211 210
122 221 229 232 221 187 175 219 196 209 208 196 179 172 166 157 177 197 190 205 184 175 149 145 169 183 165 153 157 161 156 166 162 156 163 220 244 237 236 238 240 232 225 225 229 228 223 222 223 223 222 221 220 219
163 208 176 225 267 190 195 164 203 193 142 141 219 93 114 110 115 229 229 165 159 164 155 156 155 143 136 151 153 162 155 160 184 193 204 217 222 240 256 252 250 250 242 237 230 234 235 232 231 233 229 227 229 228
116 275 221 228 266 282 8 269 120 108 157 192 179 139 113 150 219 253 133 145 153 142 137 136 132 131 129 122 120 128 149 248 262 251 239 262 272 256 252 252 267 265 263 251 250 232 233 235 236 238 238 240 232 230
52 14 125 315 280 277 208 207 165 185 187 225 102 123 148 166 213 133 129 135 140 131 121 115 109 101 98 99 132 246 258 261 256 252 252 261 279 298 261 245 244 255 245 240 243 243 241 240 239 240 242 250 236 227
20 354 330 329 297 275 255 333 349 64 359 187 106 103 102 65 70 130 139 139 131 123 111 107 96 69 36 10 330 321 313 306 292 263 253 248 246 246 261 270 263 251 239 232 238 243 238 232 227 225 226 229 237 237
344 350 341 359 32 3 13 360 18 54 74 78 93 97 87 88 92 127 137 142 125 93 126 152 151 159 146 64 6 351 345 351 351 313 5 291 292 295 294 290 282 268 263 261 248 249 239 233 233 236 234 232 231 237
339 332 305 265 195 11 2 29 57 69 58 64 82 96 107 120 110 118 160 201 216 218 210 223 237 250 249 291 339 2 46 64 80 91 113 289 312 316 317 313 301 279 270 260 249 247 253 251 247 248 245 243 241 237
350 5 314 308 346 30 67 52 53 49 39 45 51 74 86 79 77 90 47 139 152 165 184 202 193 193 220 225 207 184 126 129 114 50 5 295 305 324 334 330 335 323 270 247 252 247 250 251 254 248 240 231 233 235
327 345 334 338 6 21 14 36 33 46 41 54 39 55 59 77 106 104 83 102 126 148 162 163 160 162 171 176 177 185 203 245 298 306 305 288 282 289 299 320 318 344 25 47 209 223 232 234 235 237 237 238 234 229
Height
1354 1349 1344 1339 1336 1333 1330 1328 1326 1324 1321 1318 1314 1311 1307 1303 1300 1298 1290 1291 1291 1279 1277 1279 1284 1287 1290 1296 1300 1295 1306 1305 1308 1309 1293 1300 1300 1294 1293 1291 1300 1308 1318 1321 1334 1332 1320 1309 1320 1321 1313 1310 1309 1312
1356 1351 1347 1343 1338 1335 1331 1328 1325 1322 1318 1313 1309 1303 1299 1293 1286 1284 1274 1269 1267 1269 1263 1264 1267 1272 1277 1280 1288 1295 1291 1288 1292 1287 1291 1293 1297 1296 1295 1297 1299 1301 1296 1301 1305 1304 1299 1297 1297 1304 1307 1308 1311 1314
1356 1351 1347 1343 1339 1335 1331 1328 1324 1319 1314 1307 1301 1296 1291 1284 1277 1272 1262 1256 1253 1254 1259 1260 1256 1261 1269 1274 1280 1286 1288 1286 1287 1285 1287 1288 1292 1299 1296 1297 1301 1303 1297 1301 1302 1299 1295 1295 1298 1301 1305 1307 1310 1315
1355 1351 1346 1342 1338 1334 1329 1326 1320 1314 1307 1301 1296 1291 1284 1276 1269 1265 1258 1252 1248 1252 1254 1250 1249 1251 1257 1265 1270 1273 1276 1279 1281 1283 1284 1286 1295 1294 1293 1289 1292 1294 1295 1301 1306 1301 1299 1296 1300 1303 1306 1309 1312 1317
1353 1348 1344 1339 1335 1331 1327 1322 1316 1309 1302 1296 1292 1287 1280 1271 1262 1260 1256 1254 1251 1254 1250 1249 1247 1247 1250 1257 1265 1266 1271 1274 1274 1280 1282 1286 1289 1289 1291 1292 1290 1282 1286 1292 1289 1285 1287 1294 1297 1303 1308 1310 1313 1320
1350 1346 1341 1336 1332 1327 1322 1317 1311 1305 1297 1291 1287 1283 1278 1270 1260 1257 1256 1255 1252 1251 1249 1248 1250 1248 1248 1255 1259 1263 1263 1267 1271 1274 1278 1279 1281 1281 1281 1287 1273 1272 1280 1280 1278 1280 1285 1294 1299 1302 1309 1314 1318 1325
1347 1343 1338 1333 1328 1324 1319 1314 1307 1300 1293 1286 1281 1279 1276 1272 1266 1261 1263 1258 1252 1251 1251 1253 1253 1253 1251 1252 1258 1261 1260 1263 1265 1272 1275 1275 1278 1277 1284 1290 1278 1276 1281 1280 1277 1280 1290 1296 1300 1305 1308 1317 1322 1328
1343 1339 1335 1330 1325 1320 1315 1310 1304 1297 1289 1282 1276 1273 1272 1270 1268 1264 1261 1256 1252 1251 1251 1254 1256 1256 1256 1256 1257 1259 1262 1263 1267 1270 1273 1275 1280 1282 1288 1278 1273 1273 1276 1275 1278 1282 1289 1296 1303 1307 1311 1318 1325 1331
1339 1335 1331 1326 1322 1317 1312 1307 1300 1293 1286 1278 1272 1269 1268 1268 1266 1263 1261 1259 1256 1257 1256 1257 1257 1261 1260 1260 1261 1263 1264 1266 1269 1271 1274 1275 1278 1283 1282 1276 1271 1272 1277 1280 1286 1289 1292 1297 1305 1311 1316 1323 1327 1333
1332 1329 1326 1322 1318 1313 1309 1304 1298 1291 1284 1276 1271 1269 1268 1267 1263 1261 1259 1259 1258 1260 1261 1262 1261 1262 1264 1262 1266 1267 1268 1270 1270 1276 1275 1277 1277 1275 1276 1274 1274 1277 1282 1284 1290 1291 1296 1303 1309 1315 1320 1324 1328 1333
1327 1323 1320 1318 1314 1310 1306 1302 1296 1289 1282 1277 1274 1270 1268 1263 1261 1259 1260 1262 1263 1265 1267 1267 1266 1264 1267 1265 1267 1271 1272 1273 1273 1278 1277 1279 1281 1282 1281 1280 1282 1284 1286 1287 1289 1292 1299 1303 1310 1316 1321 1326 1330 1334
1322 1317 1315 1313 1310 1307 1303 1299 1295 1290 1285 1281 1278 1273 1269 1266 1264 1267 1272 1270 1270 1272 1273 1271 1270 1268 1268 1267 1268 1272 1274 1274 1277 1281 1280 1284 1285 1285 1285 1286 1288 1290 1292 1292 1296 1300 1306 1310 1315 1318 1322 1326 1330 1333
1317 1313 1310 1308 1305 1303 1300 1297 1294 1290 1284 1279 1277 1275 1273 1278 1285 1281 1283 1277 1277 1277 1274 1272 1271 1269 1268 1268 1271 1272 1276 1280 1280 1283 1281 1282 1285 1287 1288 1290 1292 1295 1296 1298 1303 1306 1309 1312 1316 1318 1322 1327 1330 1332
1312 1308 1305 1303 1301 1299 1297 1294 1291 1288 1284 1281 1281 1287 1285 1294 1287 1284 1284 1284 1282 1279 1276 1273 1272 1272 1271 1271 1275 1277 1281 1280 1287 1290 1280 1282 1283 1286 1289 1291 1293 1296 1299 1301 1304 1307 1310 1313 1317 1321 1324 1328 1330 1331
1307 1304 1301 1298 1295 1294 1293 1290 1288 1286 1285 1282 1282 1291 1288 1283 1284 1284 1284 1283 1282 1279 1277 1275 1275 1275 1275 1278 1278 1280 1285 1287 1282 1285 1282 1280 1283 1286 1290 1294 1296 1299 1302 1305 1308 1311 1314 1317 1320 1323 1327 1328 1330 1333
1302 1298 1297 1294 1293 1290 1289 1286 1285 1284 1282 1281 1281 1284 1284 1285 1285 1282 1282 1282 1281 1279 1278 1278 1279 1283 1282 1280 1278 1283 1278 1284 1284 1281 1280 1281 1284 1287 1291 1295 1298 1301 1304 1307 1310 1313 1316 1319 1321 1323 1326 1328 1330 1333
1299 1296 1294 1291 1288 1286 1285 1283 1282 1280 1278 1278 1279 1278 1279 1279 1278 1277 1278 1279 1280 1280 1284 1282 1286 1282 1284 1285 1281 1281 1286 1282 1281 1281 1281 1282 1284 1288 1293 1296 1300 1302 1305 1308 1311 1314 1316 1318 1321 1323 1325 1328 1330 1333
1292 1291 1290 1289 1286 1282 1280 1280 1279 1277 1274 1275 1276 1275 1276 1277 1277 1278 1277 1277 1279 1280 1281 1283 1284 1283 1292 1282 1287 1283 1282 1282 1282 1282 1282 1284 1287 1291 1294 1297 1300 1303 1306 1309 1312 1314 1316 1318 1321 1323 1326 1328 1330 1332
1286 1286 1286 1286 1286 1285 1280 1277 1276 1273 1270 1270 1270 1271 1273 1274 1275 1276 1277 1278 1278 1279 1280 1282 1283 1285 1284 1280 1280 1279 1280 1280 1282 1284 1286 1288 1290 1293 1296 1299 1302 1305 1307 1310 1312 1315 1318 1320 1322 1324 1327 1330 1332 1335
1280 1280 1281 1281 1283 1283 1278 1273 1272 1269 1267 1266 1266 1267 1269 1271 1273 1274 1276 1278 1279 1279 1280 1282 1281 1278 1278 1277 1276 1276 1277 1279 1281 1285 1289 1291 1293 1296 1299 1301 1304 1306 1308 1311 1314 1317 1319 1321 1323 1326 1329 1332 1334 1337
1273 1274 1275 1275 1277 1279 1276 1269 1267 1264 1263 1263 1262 1264 1267 1269 1271 1273 1275 1277 1278 1278 1279 1275 1275 1276 1277 1277 1277 1278 1279 1281 1283 1285 1287 1291 1295 1298 1300 1302 1304 1307 1309 1312 1314 1316 1319 1321 1324 1327 1330 1333 1335 1338
1266 1270 1272 1272 1273 1273 1270 1265 1263 1261 1262 1260 1262 1262 1263 1266 1268 1271 1273 1275 1275 1272 1273 1273 1274 1275 1276 1277 1278 1280 1282 1283 1285 1286 1289 1292 1295 1298 1300 1302 1304 1307 1310 1312 1313 1316 1318 1322 1325 1328 1331 1334 1336 1338
1263 1267 1268 1265 1265 1263 1261 1259 1260 1258 1258 1257 1258 1260 1262 1263 1264 1268 1270 1270 1269 1268 1269 1272 1273 1274 1276 1277 1279 1281 1283 1285 1287 1288 1290 1293 1295 1298 1300 1302 1305 1307 1309 1311 1314 1316 1318 1322 1324 1327 1330 1333 1335 1337
1256 1263 1263 1259 1256 1257 1255 1255 1254 1253 1252 1253 1254 1255 1257 1259 1262 1264 1266 1265 1265 1266 1267 1269 1271 1273 1276 1278 1279 1281 1283 1286 1287 1289 1291 1293 1295 1297 1299 1301 1304 1306 1309 1311 1313 1315 1318 1320 1323 1325 1328 1330 1332 1334
1256 1260 1258 1254 1252 1253 1253 1252 1250 1249 1252 1250 1251 1256 1256 1256 1258 1260 1260 1262 1263 1265 1266 1267 1269 1271 1274 1277 1279 1281 1283 1285 1287 1289 1291 1293 1294 1295 1297 1299 1300 1302 1305 1307 1309 1311 1314 1317 1319 1321 1323 1325 1327 1329
1251 1252 1254 1252 1251 1251 1249 1256 1254 1251 1250 1252 1251 1251 1253 1257 1261 1261 1259 1259 1261 1264 1265 1267 1268 1271 1274 1276 1278 1281 1282 1284 1286 1288 1289 1291 1292 1293 1294 1295 1296 1298 1299 1301 1303 1306 1308 1310 1313 1315 1317 1319 1322 1324
1249 1250 1249 1249 1248 1247 1246 1246 1245 1247 1249 1251 1250 1253 1255 1262 1262 1261 1259 1260 1262 1264 1266 1268 1270 1272 1274 1276 1278 1280 1281 1283 1284 1286 1287 1288 1289 1290 1291 1292 1293 1294 1294 1296 1296 1298 1301 1303 1306 1308 1310 1313 1315 1317
1250 1249 1252 1250 1247 1247 1247 1246 1247 1246 1246 1246 1247 1253 1254 1258 1262 1260 1260 1261 1263 1265 1268 1271 1273 1274 1276 1277 1278 1280 1281 1281 1282 1284 1285 1286 1287 1287 1288 1288 1288 1289 1290 1291 1292 1294 1295 1297 1299 1301 1303 1305 1308 1311
1252 1252 1251 1251 1248 1246 1246 1246 1245 1245 1246 1246 1250 1255 1256 1257 1260 1260 1262 1264 1267 1270 1271 1273 1274 1275 1276 1277 1277 1278 1278 1279 1280 1280 1281 1283 1284 1285 1285 1285 1286 1286 1286 1287 1288 1289 1290 1292 1294 1295 1298 1300 1303 1306
1255 1254 1253 1252 1251 1249 1251 1249 1248 1247 1246 1247 1250 1254 1258 1261 1263 1264 1266 1268 1270 1272 1273 1274 1275 1276 1277 1277 1277 1278 1278 1277 1277 1278 1279 1280 1281 1282 1282 1282 1282 1283 1283 1284 1284 1285 1286 1288 1289 1291 1293 1295 1297 1299
1257 1255 1254 1252 1253 1252 1252 1251 1251 1250 1250 1251 1252 1255 1259 1263 1266 1268 1269 1270 1271 1272 1274 1275 1275 1276 1277 1277 1278 1278 1278 1279 1278 1279 1280 1280 1281 1281 1280 1280 1279 1279 1279 1280 1281 1282 1283 1285 1286 1287 1289 1290 1291 1293
1259 1258 1257 1255 1254 1254 1253 1253 1253 1254 1255 1256 1258 1260 1262 1264 1268 1270 1271 1271 1271 1272 1273 1274 1275 1276 1276 1277 1278 1278 1279 1279 1280 1280 1280 1280 1280 1280 1279 1279 1278 1277 1276 1277 1278 1279 1281 1282 1283 1285 1286 1287 1288 1290
1260 1259 1257 1257 1256 1256 1256 1256 1256 1259 1259 1261 1263 1264 1265 1266 1270 1272 1273 1273 1274 1274 1274 1274 1275 1276 1276 1276 1277 1278 1279 1279 1279 1279 1279 1279 1279 1279 1279 1278 1278 1277 1276 1276 1276 1277 1279 1280 1281 1282 1284 1286 1287 1289